Year,Month,Day,Hour,Minute,Value (Times are PST for temperature in C)
2014,05,01,08,21,18.40
2014,05,01,08,22,18.50
2014,05,01,08,23,18.60
2014,05,01,08,24,18.70
2014,05,01,08,25,18.70
2014,05,01,08,26,18.80
2014,05,01,08,27,18.90
2014,05,01,08,28,18.90
2014,05,01,08,29,18.90
2014,05,01,08,30,19.00
2014,05,01,08,31,19.00
2014,05,01,08,32,19.10
2014,05,01,08,33,19.10
2014,05,01,08,34,19.20
2014,05,01,08,35,19.20
2014,05,01,08,36,19.10
2014,05,01,08,37,19.10
2014,05,01,08,38,19.10
2014,05,01,08,39,19.10
2014,05,01,08,40,19.10
2014,05,01,08,41,19.10
2014,05,01,08,42,19.10
2014,05,01,08,43,19.10
2014,05,01,08,44,19.10
2014,05,01,08,45,19.10
2014,05,01,08,46,19.00
2014,05,01,08,47,19.00
2014,05,01,08,48,19.00
2014,05,01,08,49,18.90
2014,05,01,08,50,18.90
2014,05,01,08,51,18.90
2014,05,01,08,52,18.90
2014,05,01,08,53,18.90
2014,05,01,08,54,18.90
2014,05,01,08,55,18.90
2014,05,01,08,56,18.90
2014,05,01,08,57,18.90
2014,05,01,08,58,18.90
2014,05,01,08,59,18.90
2014,05,01,09,00,19.00
2014,05,01,09,01,19.10
2014,05,01,09,02,19.10
2014,05,01,09,03,19.10
2014,05,01,09,04,19.10
2014,05,01,09,05,19.10
2014,05,01,09,06,19.20
2014,05,01,09,07,19.20
2014,05,01,09,08,19.30
2014,05,01,09,09,19.30
2014,05,01,09,10,19.30
2014,05,01,09,11,19.30
2014,05,01,09,12,19.30
2014,05,01,09,13,19.30
2014,05,01,09,14,19.20
2014,05,01,09,15,19.20
2014,05,01,09,16,19.20
2014,05,01,09,17,19.20
2014,05,01,09,18,19.20
2014,05,01,09,19,19.20
2014,05,01,09,20,19.20
2014,05,01,09,21,19.30
2014,05,01,09,22,19.30
2014,05,01,09,23,19.40
2014,05,01,09,24,19.50
2014,05,01,09,25,19.50
2014,05,01,09,26,19.60
2014,05,01,09,27,19.60
2014,05,01,09,28,19.60
2014,05,01,09,29,19.60
2014,05,01,09,30,19.60
2014,05,01,09,31,19.60
2014,05,01,09,32,19.60
2014,05,01,09,33,19.60
2014,05,01,09,34,19.60
2014,05,01,09,35,19.70
2014,05,01,09,36,19.80
2014,05,01,09,37,19.80
2014,05,01,09,38,19.90
2014,05,01,09,39,20.00
2014,05,01,09,40,20.10
2014,05,01,09,41,20.20
2014,05,01,09,42,20.20
2014,05,01,09,43,20.30
2014,05,01,09,44,20.30
2014,05,01,09,45,20.30
2014,05,01,09,46,20.30
2014,05,01,09,47,20.30
2014,05,01,09,48,20.30
2014,05,01,09,49,20.30
2014,05,01,09,50,20.30
2014,05,01,09,51,20.30
2014,05,01,09,52,20.30
2014,05,01,09,53,20.30
2014,05,01,09,54,20.30
2014,05,01,09,55,20.30
2014,05,01,09,56,20.40
2014,05,01,09,57,20.40
2014,05,01,09,58,20.50
2014,05,01,09,59,20.60
2014,05,01,10,00,20.60
2014,05,01,10,01,20.60
2014,05,01,10,02,20.60
2014,05,01,10,03,20.70
2014,05,01,10,04,20.70
2014,05,01,10,05,20.70
2014,05,01,10,06,20.70
2014,05,01,10,07,20.70
2014,05,01,10,08,20.80
2014,05,01,10,09,20.80
2014,05,01,10,10,20.80
2014,05,01,10,11,20.80
2014,05,01,10,12,20.70
2014,05,01,10,13,20.70
2014,05,01,10,14,20.80
2014,05,01,10,15,20.80
2014,05,01,10,16,20.80
2014,05,01,10,17,20.80
2014,05,01,10,18,20.90
2014,05,01,10,19,20.90
2014,05,01,10,20,21.00
2014,05,01,10,21,21.00
2014,05,01,10,22,21.00
2014,05,01,10,23,21.00
2014,05,01,10,24,21.00
2014,05,01,10,25,21.00
2014,05,01,10,26,21.00
2014,05,01,10,27,21.10
2014,05,01,10,28,21.20
2014,05,01,10,29,21.20
2014,05,01,10,30,21.20
2014,05,01,10,31,21.20
2014,05,01,10,32,21.20
2014,05,01,10,33,21.30
2014,05,01,10,34,21.30
2014,05,01,10,35,21.20
2014,05,01,10,36,21.20
2014,05,01,10,37,21.30
2014,05,01,10,38,21.30
2014,05,01,10,39,21.20
2014,05,01,10,40,21.20
2014,05,01,10,41,21.20
2014,05,01,10,42,21.20
2014,05,01,10,43,21.20
2014,05,01,10,44,21.20
2014,05,01,10,45,21.20
2014,05,01,10,46,21.20
2014,05,01,10,47,21.30
2014,05,01,10,48,21.30
2014,05,01,10,49,21.40
2014,05,01,10,50,21.40
2014,05,01,10,51,21.40
2014,05,01,10,52,21.50
2014,05,01,10,53,21.60
2014,05,01,10,54,21.70
2014,05,01,10,55,21.70
2014,05,01,10,56,21.80
2014,05,01,10,57,21.80
2014,05,01,10,58,21.90
2014,05,01,10,59,22.10
2014,05,01,11,00,22.20
2014,05,01,11,01,22.10
2014,05,01,11,02,22.10
2014,05,01,11,03,22.10
2014,05,01,11,04,22.10
2014,05,01,11,05,22.10
2014,05,01,11,06,22.00
2014,05,01,11,07,21.90
2014,05,01,11,08,21.80
2014,05,01,11,09,21.60
2014,05,01,11,10,21.50
2014,05,01,11,11,21.40
2014,05,01,11,12,21.40
2014,05,01,11,13,21.40
2014,05,01,11,14,21.40
2014,05,01,11,15,21.40
2014,05,01,11,16,21.40
2014,05,01,11,17,21.50
2014,05,01,11,18,21.50
2014,05,01,11,19,21.60
2014,05,01,11,20,21.60
2014,05,01,11,21,21.60
2014,05,01,11,22,21.70
2014,05,01,11,23,21.70
2014,05,01,11,24,21.70
2014,05,01,11,25,21.70
2014,05,01,11,26,21.70
2014,05,01,11,27,21.70
2014,05,01,11,28,21.60
2014,05,01,11,29,21.70
2014,05,01,11,30,21.70
2014,05,01,11,31,21.80
2014,05,01,11,32,21.80
2014,05,01,11,33,21.90
2014,05,01,11,34,21.90
2014,05,01,11,35,21.90
2014,05,01,11,36,22.00
2014,05,01,11,37,22.00
2014,05,01,11,38,22.00
2014,05,01,11,39,22.00
2014,05,01,11,40,21.90
2014,05,01,11,41,22.00
2014,05,01,11,42,22.00
2014,05,01,11,43,22.10
2014,05,01,11,44,22.10
2014,05,01,11,45,22.10
2014,05,01,11,46,22.10
2014,05,01,11,47,22.10
2014,05,01,11,48,22.10
2014,05,01,11,49,22.00
2014,05,01,11,50,22.00
2014,05,01,11,51,22.00
2014,05,01,11,52,22.00
2014,05,01,11,53,22.00
2014,05,01,11,54,22.10
2014,05,01,11,55,22.10
2014,05,01,11,56,22.20
2014,05,01,11,57,22.30
2014,05,01,11,58,22.40
2014,05,01,11,59,22.40
2014,05,01,12,00,22.50
2014,05,01,12,01,22.60
2014,05,01,12,02,22.70
2014,05,01,12,03,22.80
2014,05,01,12,04,22.80
2014,05,01,12,05,22.70
2014,05,01,12,06,22.70
2014,05,01,12,07,22.70
2014,05,01,12,08,22.70
2014,05,01,12,09,22.70
2014,05,01,12,10,22.80
2014,05,01,12,11,22.80
2014,05,01,12,12,22.80
2014,05,01,12,13,22.80
2014,05,01,12,14,22.70
2014,05,01,12,15,22.60
2014,05,01,12,16,22.60
2014,05,01,12,17,22.70
2014,05,01,12,18,22.70
2014,05,01,12,19,22.80
2014,05,01,12,20,22.80
2014,05,01,12,21,22.80
2014,05,01,12,22,22.80
2014,05,01,12,23,22.90
2014,05,01,12,24,23.00
2014,05,01,12,25,23.10
2014,05,01,12,26,23.20
2014,05,01,12,27,23.20
2014,05,01,12,28,23.20
2014,05,01,12,29,23.20
2014,05,01,12,30,23.20
2014,05,01,12,31,23.20
2014,05,01,12,32,23.10
2014,05,01,12,33,23.10
2014,05,01,12,34,23.00
2014,05,01,12,35,23.00
2014,05,01,12,36,23.00
2014,05,01,12,37,23.00
2014,05,01,12,38,23.00
2014,05,01,12,39,23.10
2014,05,01,12,40,23.20
2014,05,01,12,41,23.20
2014,05,01,12,42,23.20
2014,05,01,12,43,23.20
2014,05,01,12,44,23.30
2014,05,01,12,45,23.40
2014,05,01,12,46,23.50
2014,05,01,12,47,23.60
2014,05,01,12,48,23.50
2014,05,01,12,49,23.50
2014,05,01,12,50,23.50
2014,05,01,12,51,23.60
2014,05,01,12,52,23.60
2014,05,01,12,53,23.50
2014,05,01,12,54,23.40
2014,05,01,12,55,23.40
2014,05,01,12,56,23.30
2014,05,01,12,57,23.20
2014,05,01,12,58,23.20
2014,05,01,12,59,23.10
2014,05,01,13,00,23.10
2014,05,01,13,01,23.00
2014,05,01,13,02,22.90
2014,05,01,13,03,22.80
2014,05,01,13,04,22.70
2014,05,01,13,05,22.70
2014,05,01,13,06,22.70
2014,05,01,13,07,22.70
2014,05,01,13,08,22.80
2014,05,01,13,09,22.80
2014,05,01,13,10,22.80
2014,05,01,13,11,22.70
2014,05,01,13,12,22.60
2014,05,01,13,13,22.60
2014,05,01,13,14,22.70
2014,05,01,13,15,22.80
2014,05,01,13,16,22.80
2014,05,01,13,17,22.70
2014,05,01,13,18,22.60
2014,05,01,13,19,22.60
2014,05,01,13,20,22.60
2014,05,01,13,21,22.60
2014,05,01,13,22,22.50
2014,05,01,13,23,22.30
2014,05,01,13,24,22.00
2014,05,01,13,25,21.60
2014,05,01,13,26,21.30
2014,05,01,13,27,21.20
2014,05,01,13,28,21.10
2014,05,01,13,29,21.10
2014,05,01,13,30,21.20
2014,05,01,13,31,21.40
2014,05,01,13,32,21.40
2014,05,01,13,33,21.40
2014,05,01,13,34,21.40
2014,05,01,13,35,21.30
2014,05,01,13,36,21.30
2014,05,01,13,37,21.30
2014,05,01,13,38,21.40
2014,05,01,13,39,21.60
2014,05,01,13,40,21.50
2014,05,01,13,41,21.50
2014,05,01,13,42,21.60
2014,05,01,13,43,21.70
2014,05,01,13,44,21.80
2014,05,01,13,45,21.80
2014,05,01,13,46,21.80
2014,05,01,13,47,21.80
2014,05,01,13,48,21.80
2014,05,01,13,49,21.80
2014,05,01,13,50,21.80
2014,05,01,13,51,21.70
2014,05,01,13,52,21.80
2014,05,01,13,53,21.80
2014,05,01,13,54,21.70
2014,05,01,13,55,21.80
2014,05,01,13,56,21.90
2014,05,01,13,57,21.90
2014,05,01,13,58,21.90
2014,05,01,13,59,21.80
2014,05,01,14,00,21.90
2014,05,01,14,01,22.00
2014,05,01,14,02,22.10
2014,05,01,14,03,22.30
2014,05,01,14,04,22.30
2014,05,01,14,05,22.30
2014,05,01,14,06,22.10
2014,05,01,14,07,21.90
2014,05,01,14,08,21.90
2014,05,01,14,09,21.80
2014,05,01,14,10,21.70
2014,05,01,14,11,21.80
2014,05,01,14,12,21.80
2014,05,01,14,13,21.80
2014,05,01,14,14,21.80
2014,05,01,14,15,21.70
2014,05,01,14,16,21.80
2014,05,01,14,17,21.70
2014,05,01,14,18,21.70
2014,05,01,14,19,21.70
2014,05,01,14,20,21.70
2014,05,01,14,21,21.70
2014,05,01,14,22,21.80
2014,05,01,14,23,21.90
2014,05,01,14,24,22.00
2014,05,01,14,25,22.10
2014,05,01,14,26,22.10
2014,05,01,14,27,22.20
2014,05,01,14,28,22.20
2014,05,01,14,29,22.20
2014,05,01,14,30,22.00
2014,05,01,14,31,21.90
2014,05,01,14,32,21.70
2014,05,01,14,33,21.70
2014,05,01,14,34,21.70
2014,05,01,14,35,21.70
2014,05,01,14,36,21.70
2014,05,01,14,37,21.80
2014,05,01,14,38,21.90
2014,05,01,14,39,22.00
2014,05,01,14,40,21.90
2014,05,01,14,41,21.90
2014,05,01,14,42,21.80
2014,05,01,14,43,21.80
2014,05,01,14,44,21.80
2014,05,01,14,45,21.80
2014,05,01,14,46,21.90
2014,05,01,14,47,21.90
2014,05,01,14,48,21.90
2014,05,01,14,49,21.80
2014,05,01,14,50,21.70
2014,05,01,14,51,21.60
2014,05,01,14,52,21.70
2014,05,01,14,53,21.80
2014,05,01,14,54,21.90
2014,05,01,14,55,22.10
2014,05,01,14,56,22.20
2014,05,01,14,57,22.30
2014,05,01,14,58,22.50
2014,05,01,14,59,22.60
2014,05,01,15,00,22.60
2014,05,01,15,01,22.50
2014,05,01,15,02,22.50
2014,05,01,15,03,22.50
2014,05,01,15,04,22.50
2014,05,01,15,05,22.40
2014,05,01,15,06,22.50
2014,05,01,15,07,22.60
2014,05,01,15,08,22.70
2014,05,01,15,09,22.80
2014,05,01,15,10,22.80
2014,05,01,15,11,22.90
2014,05,01,15,12,22.90
2014,05,01,15,13,22.80
2014,05,01,15,14,22.80
2014,05,01,15,15,22.60
2014,05,01,15,16,22.50
2014,05,01,15,17,22.40
2014,05,01,15,18,22.40
2014,05,01,15,19,22.20
2014,05,01,15,20,22.20
2014,05,01,15,21,22.30
2014,05,01,15,22,22.40
2014,05,01,15,23,22.50
2014,05,01,15,24,22.40
2014,05,01,15,25,22.40
2014,05,01,15,26,22.30
2014,05,01,15,27,22.30
2014,05,01,15,28,22.20
2014,05,01,15,29,22.20
2014,05,01,15,30,22.20
2014,05,01,15,31,22.20
2014,05,01,15,32,22.30
2014,05,01,15,33,22.30
2014,05,01,15,34,22.30
2014,05,01,15,35,22.40
2014,05,01,15,36,22.50
2014,05,01,15,37,22.50
2014,05,01,15,38,22.40
2014,05,01,15,39,22.40
2014,05,01,15,40,22.50
2014,05,01,15,41,22.60
2014,05,01,15,42,22.60
2014,05,01,15,43,22.70
2014,05,01,15,44,22.80
2014,05,01,15,45,22.90
2014,05,01,15,46,22.80
2014,05,01,15,47,22.70
2014,05,01,15,48,22.60
2014,05,01,15,49,22.50
2014,05,01,15,50,22.50
2014,05,01,15,51,22.40
2014,05,01,15,52,22.30
2014,05,01,15,53,22.40
2014,05,01,15,54,22.40
2014,05,01,15,55,22.40
2014,05,01,15,56,22.40
2014,05,01,15,57,22.40
2014,05,01,15,58,22.30
2014,05,01,15,59,22.20
2014,05,01,16,00,22.20
2014,05,01,16,01,22.20
2014,05,01,16,02,22.30
2014,05,01,16,03,22.40
2014,05,01,16,04,22.60
2014,05,01,16,05,22.60
2014,05,01,16,06,22.60
2014,05,01,16,07,22.60
2014,05,01,16,08,22.60
2014,05,01,16,09,22.50
2014,05,01,16,10,22.40
2014,05,01,16,11,22.40
2014,05,01,16,12,22.40
2014,05,01,16,13,22.50
2014,05,01,16,14,22.60
2014,05,01,16,15,22.60
2014,05,01,16,16,22.60
2014,05,01,16,17,22.60
2014,05,01,16,18,22.60
2014,05,01,16,19,22.60
2014,05,01,16,20,22.60
2014,05,01,16,21,22.50
2014,05,01,16,22,22.40
2014,05,01,16,23,22.30
2014,05,01,16,24,22.40
2014,05,01,16,25,22.50
2014,05,01,16,26,22.60
2014,05,01,16,27,22.70
2014,05,01,16,28,22.80
2014,05,01,16,29,23.00
2014,05,01,16,30,23.10
2014,05,01,16,31,23.10
2014,05,01,16,32,23.20
2014,05,01,16,33,23.20
2014,05,01,16,34,23.20
2014,05,01,16,35,23.20
2014,05,01,16,36,23.30
2014,05,01,16,37,23.20
2014,05,01,16,38,23.20
2014,05,01,16,39,23.30
2014,05,01,16,40,23.40
2014,05,01,16,41,23.50
2014,05,01,16,42,23.60
2014,05,01,16,43,23.70
2014,05,01,16,44,23.80
2014,05,01,16,45,24.00
2014,05,01,16,46,24.10
2014,05,01,16,47,24.20
2014,05,01,16,48,24.30
2014,05,01,16,49,24.30
2014,05,01,16,50,24.40
2014,05,01,16,51,24.40
2014,05,01,16,52,24.30
2014,05,01,16,53,24.30
2014,05,01,16,54,24.20
2014,05,01,16,55,24.10
2014,05,01,16,56,24.10
2014,05,01,16,57,24.10
2014,05,01,16,58,24.10
2014,05,01,16,59,24.00
2014,05,01,17,00,23.90
2014,05,01,17,01,23.90
2014,05,01,17,02,23.90
2014,05,01,17,03,24.00
2014,05,01,17,04,24.00
2014,05,01,17,05,23.90
2014,05,01,17,06,23.80
2014,05,01,17,07,23.90
2014,05,01,17,08,23.90
2014,05,01,17,09,23.80
2014,05,01,17,10,23.70
2014,05,01,17,11,23.70
2014,05,01,17,12,23.60
2014,05,01,17,13,23.50
2014,05,01,17,14,23.40
2014,05,01,17,15,23.40
2014,05,01,17,16,23.30
2014,05,01,17,17,23.30
2014,05,01,17,18,23.20
2014,05,01,17,19,23.20
2014,05,01,17,20,23.20
2014,05,01,17,21,23.10
2014,05,01,17,22,23.20
2014,05,01,17,23,23.20
2014,05,01,17,24,23.30
2014,05,01,17,25,23.30
2014,05,01,17,26,23.30
2014,05,01,17,27,23.30
2014,05,01,17,28,23.40
2014,05,01,17,29,23.30
2014,05,01,17,30,23.20
2014,05,01,17,31,23.20
2014,05,01,17,32,23.10
2014,05,01,17,33,23.00
2014,05,01,17,34,23.00
2014,05,01,17,35,23.00
2014,05,01,17,36,23.00
2014,05,01,17,37,23.10
2014,05,01,17,38,23.10
2014,05,01,17,39,23.20
2014,05,01,17,40,23.30
2014,05,01,17,41,23.40
2014,05,01,17,42,23.50
2014,05,01,17,43,23.50
2014,05,01,17,44,23.50
2014,05,01,17,45,23.30
2014,05,01,17,46,23.30
2014,05,01,17,47,23.20
2014,05,01,17,48,23.20
2014,05,01,17,49,23.20
2014,05,01,17,50,23.30
2014,05,01,17,51,23.30
2014,05,01,17,52,23.30
2014,05,01,17,53,23.40
2014,05,01,17,54,23.40
2014,05,01,17,55,23.40
2014,05,01,17,56,23.40
2014,05,01,17,57,23.50
2014,05,01,17,58,23.50
2014,05,01,17,59,23.40
2014,05,01,18,00,23.40
2014,05,01,18,01,23.50
2014,05,01,18,02,23.50
2014,05,01,18,03,23.60
2014,05,01,18,04,23.50
2014,05,01,18,05,23.40
2014,05,01,18,06,23.30
2014,05,01,18,07,23.20
2014,05,01,18,08,23.00
2014,05,01,18,09,22.90
2014,05,01,18,10,22.90
2014,05,01,18,11,22.90
2014,05,01,18,12,22.90
2014,05,01,18,13,22.90
2014,05,01,18,14,23.00
2014,05,01,18,15,23.00
2014,05,01,18,16,23.00
2014,05,01,18,17,23.00
2014,05,01,18,18,23.00
2014,05,01,18,19,23.00
2014,05,01,18,20,23.00
2014,05,01,18,21,23.00
2014,05,01,18,22,23.00
2014,05,01,18,23,23.00
2014,05,01,18,24,23.00
2014,05,01,18,25,23.00
2014,05,01,18,26,23.00
2014,05,01,18,27,23.00
2014,05,01,18,28,23.00
